period_start,C,m1,H,J0,J1,J2,J3,J4,J5,JA,JB,JC,JD,JJ,JK,JN,#
2015-12-24 00:04:36,0.23,1.33,0.00,11.78,16.34,20.22,15.19,51.16,1013.39,2077.87,3169.08,2820.62,3164.79,599.92,617.52,4.82,0000 0000 0000 0000 000000
2015-12-24 00:09:37,0.21,1.34,0.00,11.81,16.34,20.22,15.23,51.02,1013.18,2077.70,3164.89,2817.35,3160.93,600.08,617.43,4.87,0000 0000 0000 0000 000000
2015-12-24 00:14:39,0.23,1.35,0.00,11.82,16.34,20.27,15.16,50.96,1013.19,2077.73,3160.88,2814.40,3157.25,599.74,617.17,4.93,0000 0000 0000 0000 000000
2015-12-24 00:19:40,0.24,1.36,0.00,11.85,16.34,20.26,15.22,51.22,1013.20,2077.74,3156.60,2811.00,3153.41,599.81,617.07,4.98,0000 0000 0000 0000 000000
2015-12-24 00:24:41,0.23,1.37,0.00,11.89,16.34,20.24,15.19,51.13,1013.19,2077.56,3152.27,2807.87,3149.75,599.88,617.14,5.03,0000 0000 0000 0000 000000
2015-12-24 00:29:43,0.21,1.39,0.00,11.89,16.35,20.25,15.15,51.08,1013.19,2077.31,3147.93,2804.48,3145.46,600.06,617.29,5.08,0000 0000 0000 0000 000000
2015-12-24 00:34:44,0.24,1.40,0.00,11.90,16.36,20.22,15.20,51.15,1013.13,2077.19,3143.77,2800.93,3141.66,600.37,617.49,5.13,0000 0000 0000 0000 000000
2015-12-24 00:39:45,0.21,1.41,0.00,11.92,16.37,20.27,15.21,51.48,1013.14,2077.08,3139.70,2797.64,3138.03,600.16,617.20,5.18,0000 0000 0000 0000 000000
2015-12-24 00:44:46,0.25,1.42,0.00,11.91,16.37,20.36,15.17,51.38,1012.88,2077.05,3135.52,2794.21,3134.39,599.72,616.67,5.23,0000 0000 0000 0000 000000
2015-12-24 00:49:48,0.25,1.43,0.00,11.94,16.37,20.29,15.23,51.27,1013.18,2077.03,3131.22,2790.57,3130.50,599.80,616.95,5.28,0000 0000 0000 0000 000000
2015-12-24 00:54:49,0.25,1.45,0.00,11.98,16.38,20.22,15.19,51.23,1013.18,2077.05,3126.85,2787.03,3126.54,599.96,616.84,5.33,0000 0000 0000 0000 000000
2015-12-24 00:59:50,0.25,1.46,0.00,11.99,16.39,20.33,15.16,51.26,1013.17,2077.03,3122.61,2783.59,3122.86,599.80,616.86,5.38,0000 0000 0000 0000 000000
2015-12-24 01:04:52,0.24,1.47,0.00,12.02,16.39,20.27,15.11,51.21,1013.09,2077.01,3118.17,2780.03,3118.98,599.44,616.25,5.43,0000 0000 0000 0000 000000
2015-12-24 01:09:53,0.26,1.48,0.00,12.04,16.40,20.30,15.18,51.24,1013.01,2077.02,3113.78,2776.59,3114.99,600.40,617.15,5.48,0000 0000 0000 0000 000000
2015-12-24 01:14:54,0.24,1.50,0.00,12.04,16.42,20.35,15.23,51.19,1013.19,2077.01,3109.32,2773.11,3111.00,600.53,617.39,5.53,0000 0000 0000 0000 000000
2015-12-24 01:19:55,0.22,1.51,0.00,12.05,16.42,20.33,15.16,50.96,1013.20,2077.00,3105.42,2769.97,3107.65,599.86,616.71,5.58,0000 0000 0000 0000 000000
2015-12-24 01:24:57,0.23,1.52,0.00,12.04,16.44,20.34,15.22,51.02,1013.20,2077.00,3101.44,2766.82,3104.08,600.18,617.04,5.63,0000 0000 0000 0000 000000
2015-12-24 01:29:58,0.22,1.53,0.00,12.06,16.44,20.33,15.15,50.98,1013.20,2077.00,3097.50,2763.58,3100.43,599.74,616.55,5.68,0000 0000 0000 0000 000000
2015-12-24 01:34:59,0.23,1.54,0.00,12.07,16.45,20.38,15.17,50.81,1013.20,2076.98,3093.53,2760.46,3096.89,599.79,616.57,5.73,0000 0000 0000 0000 000000
2015-12-24 01:40:01,0.20,1.56,0.00,12.07,16.47,20.40,15.24,51.12,1013.20,2076.98,3089.86,2757.61,3093.69,600.14,616.98,5.78,0000 0000 0000 0000 000000
2015-12-24 01:45:02,0.21,1.57,0.00,12.08,16.47,20.40,15.21,50.92,1013.16,2076.96,3086.22,2754.86,3090.52,600.10,616.85,5.83,0000 0000 0000 0000 000000
2015-12-24 01:50:03,0.19,1.58,0.00,12.09,16.49,20.39,15.23,50.64,1013.19,2076.95,3082.89,2752.30,3087.56,600.52,617.25,5.88,0000 0000 0000 0000 000000
2015-12-24 01:55:05,0.20,1.59,0.00,12.08,16.49,20.41,15.09,50.63,1013.24,2076.90,3079.13,2749.76,3084.53,599.72,616.50,5.93,0000 0000 0000 0000 000000
2015-12-24 02:00:06,0.18,1.60,0.00,12.14,16.51,20.42,15.13,50.46,1013.65,2076.79,3075.49,2747.22,3081.52,599.76,616.70,5.98,0000 0000 0000 0000 000000
2015-12-24 02:05:07,0.18,1.61,0.00,12.15,16.52,20.46,15.14,50.77,1013.87,2076.71,3071.93,2744.56,3078.58,600.27,617.39,6.03,0000 0000 0000 0000 000000
2015-12-24 02:10:09,0.15,1.61,0.00,12.17,16.54,20.46,15.18,51.40,1014.04,2076.52,3068.90,2742.16,3075.75,599.81,616.99,6.08,0000 0000 0000 0000 000000
2015-12-24 02:15:10,0.20,1.62,0.00,12.21,16.55,20.56,15.20,51.40,1014.15,2076.15,3065.17,2739.28,3072.38,600.24,617.30,6.13,0000 0000 0000 0000 000000
2015-12-24 02:20:11,0.26,1.63,0.00,12.26,16.57,20.61,15.12,51.96,1013.82,2076.06,3061.15,2735.82,3068.76,599.46,616.22,6.18,0000 0000 0000 0000 000000
2015-12-24 02:25:13,0.28,1.65,0.00,12.27,16.59,20.50,15.17,51.81,1014.05,2076.04,3057.02,2731.63,3064.46,599.97,616.86,6.23,0000 0000 0000 0000 000000
2015-12-24 02:30:14,0.23,1.66,0.00,12.28,16.60,20.64,15.23,51.77,1014.16,2076.02,3053.25,2728.28,3060.74,600.34,617.41,6.28,0000 0000 0000 0000 000000
2015-12-24 02:35:15,0.24,1.67,0.00,12.29,16.62,20.62,15.24,51.44,1014.16,2076.00,3049.34,2724.94,3057.06,600.50,617.51,6.33,0000 0000 0000 0000 000000
2015-12-24 02:40:17,0.21,1.68,0.00,12.30,16.64,20.68,15.15,50.96,1014.15,2076.00,3045.78,2722.13,3053.84,599.83,616.70,6.38,0000 0000 0000 0000 000000
2015-12-24 02:45:18,0.19,1.69,0.00,12.32,16.65,20.66,15.22,51.05,1013.94,2076.00,3042.49,2719.60,3051.00,600.33,617.10,6.43,0000 0000 0000 0000 000000
2015-12-24 02:50:20,0.19,1.70,0.00,12.36,16.67,20.62,15.12,51.34,1013.88,2076.00,3039.34,2717.14,3048.21,599.88,616.53,6.48,0000 0000 0000 0000 000000
2015-12-24 02:55:21,0.17,1.71,0.00,12.35,16.69,20.66,15.15,50.98,1013.93,2075.99,3036.38,2714.81,3045.51,600.30,616.96,6.53,0000 0000 0000 0000 000000
2015-12-24 03:00:22,0.16,1.72,0.00,12.35,16.71,20.68,15.09,51.01,1014.15,2075.97,3033.51,2712.57,3043.04,600.09,616.87,6.58,0000 0000 0000 0000 000000
2015-12-24 03:05:23,0.15,1.73,0.00,12.39,16.73,20.74,15.22,50.72,1014.17,2075.97,3030.70,2710.55,3040.77,600.35,617.04,6.63,0000 0000 0000 0000 000000
2015-12-24 03:10:24,0.15,1.74,0.00,12.43,16.74,20.76,15.23,50.56,1014.17,2075.95,3027.94,2708.69,3038.49,600.25,616.88,6.68,0000 0000 0000 0000 000000
2015-12-24 03:15:26,0.17,1.74,0.00,12.45,16.77,20.81,15.09,50.42,1014.04,2075.90,3024.89,2706.45,3036.04,599.72,616.22,6.73,0000 0000 0000 0000 000000
2015-12-24 03:20:27,0.16,1.75,0.00,12.49,16.78,20.72,15.12,50.38,1013.74,2075.92,3021.87,2704.24,3033.52,599.79,616.01,6.78,0000 0000 0000 0000 000000
2015-12-24 03:25:28,0.15,1.76,0.00,12.53,16.80,20.77,15.14,50.34,1013.72,2075.79,3018.99,2702.02,3031.14,599.73,615.87,6.83,0000 0000 0000 0000 000000
2015-12-24 03:30:30,0.13,1.77,0.00,12.57,16.82,20.85,15.22,50.36,1013.62,2075.45,3016.10,2699.92,3028.70,600.55,616.55,6.88,0000 0000 0000 0000 000000
2015-12-24 03:35:31,0.15,1.78,0.00,12.59,16.84,20.83,15.13,50.43,1013.39,2075.21,3013.13,2697.81,3026.33,600.07,615.85,6.93,0000 0000 0000 0000 000000
2015-12-24 03:40:32,0.17,1.79,0.00,12.63,16.87,20.88,15.12,50.72,1013.28,2075.12,3010.29,2695.43,3023.68,600.21,615.84,6.98,0000 0000 0000 0000 000000
2015-12-24 03:45:33,0.20,1.80,0.00,12.65,16.89,20.91,15.05,50.93,1012.57,2075.02,3007.33,2692.69,3020.61,599.55,614.71,7.03,0000 0000 0000 0000 000000
2015-12-24 03:50:34,0.19,1.81,0.00,12.68,16.91,20.95,15.14,51.08,1011.96,2075.00,3004.22,2690.03,3017.50,600.24,615.01,7.08,0000 0000 0000 0000 000000
2015-12-24 03:55:36,0.18,1.82,0.00,12.67,16.93,20.92,15.08,51.06,1011.73,2075.00,3001.16,2687.53,3014.76,599.87,614.52,7.13,0000 0000 0000 0000 000000
2015-12-24 04:00:37,0.18,1.82,0.00,12.71,16.96,20.98,15.10,50.91,1011.48,2075.00,2998.15,2685.21,3012.07,600.22,614.61,7.18,0000 0000 0000 0000 000000
2015-12-24 04:05:38,0.20,1.83,0.00,12.72,16.97,21.02,15.11,50.99,1011.53,2074.98,2994.97,2682.54,3009.04,600.45,614.84,7.24,0000 0000 0000 0000 000000
2015-12-24 04:10:40,0.20,1.84,0.00,12.72,16.99,21.01,15.08,50.86,1011.57,2074.95,2991.71,2679.75,3006.14,599.96,614.36,7.29,0000 0000 0000 0000 000000
2015-12-24 04:15:41,0.19,1.85,0.00,12.74,17.01,21.04,15.16,50.87,1011.61,2074.95,2988.42,2677.32,3003.34,600.22,614.65,7.34,0000 0000 0000 0000 000000
2015-12-24 04:20:42,0.22,1.87,0.00,12.73,17.03,20.97,15.13,51.00,1011.40,2074.80,2984.66,2674.44,2999.78,600.20,614.53,7.39,0000 0000 0000 0000 000000
2015-12-24 04:25:44,0.19,1.88,0.00,12.75,17.05,21.09,15.09,51.04,1011.26,2074.47,2981.12,2671.48,2996.24,599.89,614.04,7.44,0000 0000 0000 0000 000000
2015-12-24 04:30:45,0.19,1.88,0.00,12.77,17.08,21.11,15.14,51.23,1011.24,2074.31,2977.89,2668.85,2993.37,600.31,614.55,7.49,0000 0000 0000 0000 000000
2015-12-24 04:35:46,0.28,1.90,0.00,12.76,17.09,21.12,15.16,51.34,1011.17,2074.41,2974.27,2665.14,2989.54,600.24,614.36,7.54,0000 0000 0000 0000 000000
2015-12-24 04:40:48,0.22,1.91,0.00,12.76,17.12,21.18,15.17,51.41,1010.81,2074.08,2970.67,2661.85,2985.86,600.33,614.20,7.59,0000 0000 0000 0000 000000
2015-12-24 04:45:49,0.23,1.92,0.00,12.77,17.14,21.19,15.07,51.26,1010.77,2074.04,2967.20,2658.76,2982.38,600.05,614.01,7.64,0000 0000 0000 0000 000000
2015-12-24 04:50:50,0.24,1.93,0.00,12.77,17.15,21.20,15.13,51.38,1010.67,2074.01,2963.45,2655.78,2978.81,599.87,613.58,7.69,0000 0000 0000 0000 000000
2015-12-24 04:55:52,0.23,1.94,0.00,12.78,17.17,21.18,15.07,51.36,1010.39,2074.00,2959.86,2652.82,2975.43,599.81,613.37,7.74,0000 0000 0000 0000 000000
2015-12-24 05:00:53,0.19,1.96,0.00,12.75,17.19,21.20,15.13,51.37,1010.24,2074.01,2956.77,2650.20,2972.28,599.94,613.48,7.79,0000 0000 0000 0000 000000
2015-12-24 05:05:54,0.18,1.97,0.00,12.75,17.20,21.12,15.14,51.84,1009.85,2074.00,2953.52,2647.91,2969.39,599.99,613.30,7.84,0000 0000 0000 0000 000000
2015-12-24 05:10:56,0.25,1.98,0.00,12.76,17.22,21.18,15.16,52.13,1009.77,2074.00,2949.79,2644.83,2965.94,600.32,613.55,7.89,0000 0000 0000 0000 000000
2015-12-24 05:15:57,0.19,1.99,0.00,12.71,17.23,21.22,15.08,51.89,1009.74,2074.00,2946.52,2642.30,2963.17,599.64,612.95,7.94,0000 0000 0000 0000 000000
2015-12-24 05:20:59,0.29,2.00,0.00,12.69,17.24,21.18,15.08,51.92,1009.64,2073.99,2942.63,2638.63,2959.33,599.94,613.21,7.99,0000 0000 0000 0000 000000
2015-12-24 05:26:00,0.29,2.02,0.00,12.67,17.24,21.24,15.09,51.64,1009.54,2073.99,2937.98,2634.44,2954.53,600.62,613.84,8.04,0000 0000 0000 0000 000000
2015-12-24 05:31:02,0.26,2.03,0.00,12.66,17.26,21.17,15.08,51.71,1009.53,2073.98,2934.20,2631.15,2950.78,600.13,613.43,8.09,0000 0000 0000 0000 000000
2015-12-24 05:36:03,0.22,2.04,0.00,12.61,17.27,21.24,15.18,51.67,1009.66,2073.98,2930.75,2628.27,2947.48,600.61,614.09,8.14,0000 0000 0000 0000 000000
2015-12-24 05:41:04,0.19,2.05,0.00,12.60,17.27,21.17,15.07,51.72,1009.73,2073.96,2927.43,2625.84,2944.55,599.54,613.01,8.19,0000 0000 0000 0000 000000
2015-12-24 05:46:05,0.24,2.06,0.00,12.62,17.27,21.17,15.12,51.67,1009.74,2073.94,2923.74,2623.11,2941.24,600.07,613.55,8.24,0000 0000 0000 0000 000000
2015-12-24 05:51:07,0.33,2.08,0.00,12.59,17.27,21.23,15.16,51.72,1009.78,2073.86,2919.12,2619.19,2936.80,600.25,613.77,8.29,0000 0000 0000 0000 000000
2015-12-24 05:56:08,0.23,2.09,0.00,12.56,17.27,21.19,15.12,51.98,1009.75,2073.92,2915.33,2615.81,2932.86,599.90,613.47,8.34,0000 0000 0000 0000 000000
2015-12-24 06:01:10,0.26,2.10,0.00,12.55,17.27,21.21,15.12,52.07,1009.77,2073.90,2911.60,2612.59,2929.06,599.77,613.54,8.39,0000 0000 0000 0000 000000
2015-12-24 06:06:11,0.29,2.12,0.00,12.50,17.27,21.17,15.09,51.81,1009.77,2073.91,2907.66,2608.82,2925.03,599.56,613.33,8.44,0000 0000 0000 0000 000000
2015-12-24 06:11:12,0.27,2.13,0.00,12.48,17.27,21.16,15.16,52.45,1009.77,2073.89,2903.32,2604.87,2920.86,599.90,613.81,8.49,0000 0000 0000 0000 000000
2015-12-24 06:16:13,0.33,2.15,0.00,12.43,17.27,21.18,15.11,52.21,1009.78,2073.94,2899.11,2600.98,2916.88,599.77,613.79,8.54,0000 0000 0000 0000 000000
2015-12-24 06:21:15,0.24,2.17,0.00,12.38,17.27,21.18,15.05,51.73,1009.79,2073.93,2894.90,2597.39,2912.67,599.94,613.87,8.59,0000 0000 0000 0000 000000
2015-12-24 06:26:16,0.20,2.17,0.00,12.38,17.25,21.16,15.09,52.02,1009.79,2073.88,2891.51,2595.19,2909.80,600.33,614.39,8.64,0000 0000 0000 0000 000000
2015-12-24 06:31:17,0.40,2.19,0.00,12.35,17.24,21.16,15.20,51.59,1009.84,2073.90,2886.85,2590.78,2905.30,600.83,615.01,8.69,0000 0000 0000 0000 000000
2015-12-24 06:36:19,0.32,2.21,0.00,12.33,17.23,21.10,15.09,52.08,1009.92,2073.88,2882.10,2586.13,2900.34,599.85,614.09,8.74,0000 0000 0000 0000 000000
2015-12-24 06:41:20,0.32,2.22,0.00,12.29,17.22,21.09,15.19,51.98,1009.89,2073.86,2877.56,2581.92,2895.76,600.24,614.42,8.79,0000 0000 0000 0000 000000
2015-12-24 06:46:21,0.29,2.24,0.00,12.26,17.20,21.08,15.11,52.13,1009.82,2073.94,2873.14,2578.25,2891.75,599.80,614.13,8.84,0000 0000 0000 0000 000000
2015-12-24 06:51:22,0.38,2.26,0.00,12.25,17.19,21.17,15.15,52.29,1009.80,2073.98,2868.37,2573.95,2887.00,600.25,614.60,8.89,0000 0000 0000 0000 000000
2015-12-24 06:56:24,0.33,2.28,0.00,12.22,17.17,21.07,15.18,52.39,1009.78,2073.98,2863.23,2569.34,2881.66,599.60,614.12,8.94,0000 0000 0000 0000 000000
2015-12-24 07:01:25,0.30,2.29,0.00,12.17,17.15,21.02,15.13,52.14,1009.79,2073.97,2858.65,2565.75,2877.40,600.06,614.54,8.99,0000 0000 0000 0000 000000
2015-12-24 07:06:27,0.31,2.31,0.00,12.13,17.14,21.04,15.15,52.08,1009.66,2073.98,2854.35,2562.32,2873.18,599.95,614.46,9.04,0000 0000 0000 0000 000000
2015-12-24 07:11:28,0.36,2.32,0.00,12.11,17.12,21.03,15.13,52.35,1009.30,2073.99,2849.23,2557.80,2868.10,599.95,614.34,9.09,0000 0000 0000 0000 000000
2015-12-24 07:16:30,0.29,2.34,0.00,12.05,17.09,21.00,15.18,52.77,1009.23,2073.99,2844.73,2553.85,2863.67,600.04,614.47,9.14,0000 0000 0000 0000 000000
2015-12-24 07:21:31,0.28,2.36,0.00,12.01,17.07,21.00,15.17,52.73,1009.20,2074.00,2840.70,2550.63,2860.03,600.26,614.72,9.19,0000 0000 0000 0000 000000
2015-12-24 07:26:32,0.30,2.37,0.00,11.97,17.04,20.97,15.11,52.67,1008.88,2074.01,2836.30,2546.94,2855.51,599.30,613.67,9.24,0000 0000 0000 0000 000000
2015-12-24 07:31:33,0.34,2.39,0.00,11.94,17.02,20.87,15.16,52.33,1008.90,2074.01,2831.35,2542.93,2850.63,599.76,614.25,9.29,0000 0000 0000 0000 000000
2015-12-24 07:36:35,0.30,2.40,0.00,11.90,16.99,20.86,15.18,52.24,1009.19,2074.03,2827.03,2539.59,2846.56,600.32,615.20,9.34,0000 0000 0000 0000 000000
2015-12-24 07:41:36,0.42,2.42,0.00,11.82,16.97,20.81,15.17,52.44,1009.33,2074.05,2821.61,2534.60,2841.13,600.23,615.26,9.39,0000 0000 0000 0000 000000
2015-12-24 07:46:37,0.34,2.44,0.00,11.78,16.95,20.82,15.21,52.23,1009.42,2074.10,2816.30,2530.10,2836.30,600.28,615.37,9.44,0000 0000 0000 0000 000000
2015-12-24 07:51:39,0.36,2.46,0.00,11.73,16.92,20.76,15.16,52.61,1009.32,2074.47,2812.22,2526.31,2832.42,599.97,615.07,9.50,0000 0000 0000 0000 000000
2015-12-24 07:56:40,0.46,2.48,0.00,11.70,16.89,20.75,15.14,52.29,1009.40,2074.83,2806.78,2520.72,2826.59,600.05,615.22,9.55,0000 0000 0000 0000 000000
2015-12-24 08:01:41,0.38,2.50,0.00,11.70,16.86,20.70,15.23,52.55,1009.46,2074.87,2801.81,2516.25,2821.53,599.85,615.13,9.60,0000 0000 0000 0000 000000
2015-12-24 08:06:42,0.34,2.52,0.00,11.65,16.83,20.62,15.21,52.52,1009.35,2074.97,2796.65,2512.05,2816.69,600.02,615.38,9.65,0000 0000 0000 0000 000000
2015-12-24 08:11:43,0.36,2.54,0.00,11.59,16.80,20.62,15.13,52.36,1009.47,2074.98,2791.72,2507.78,2811.99,599.91,615.48,9.70,0000 0000 0000 0000 000000
2015-12-24 08:16:44,0.32,2.56,0.00,11.54,16.77,20.57,15.12,52.18,1009.62,2074.99,2787.30,2503.52,2807.98,599.85,615.56,9.75,0000 0000 0000 0000 000000
2015-12-24 08:21:46,0.30,2.57,0.00,11.54,16.73,20.55,15.21,52.06,1009.77,2074.99,2783.29,2499.90,2803.99,600.19,616.03,9.80,0000 0000 0000 0000 000000
2015-12-24 08:26:47,0.31,2.59,0.00,11.55,16.70,20.57,15.20,52.33,1009.44,2075.01,2779.10,2496.43,2800.01,600.03,615.67,9.85,0000 0000 0000 0000 000000
2015-12-24 08:31:48,0.28,2.60,0.00,11.52,16.68,20.53,15.13,52.00,1009.77,2075.04,2774.91,2492.86,2796.02,599.50,615.38,9.90,0000 0000 0000 0000 000000
2015-12-24 08:36:49,0.31,2.62,0.00,11.53,16.64,20.48,15.22,52.06,1010.01,2075.19,2770.89,2489.39,2792.14,600.11,616.12,9.95,0000 0000 0000 0000 000000
2015-12-24 08:41:50,0.35,2.63,0.00,11.54,16.62,20.44,15.21,52.27,1009.80,2075.30,2766.55,2485.57,2787.83,600.13,616.07,10.00,0000 0000 0000 0000 000000
2015-12-24 08:46:52,0.35,2.65,0.00,11.50,16.59,20.41,15.29,52.21,1009.79,2075.78,2762.11,2481.73,2783.67,599.79,615.75,10.05,0000 0000 0000 0000 000000
2015-12-24 08:51:53,0.34,2.67,0.00,11.48,16.56,20.35,15.25,51.83,1010.22,2075.96,2757.76,2477.80,2779.20,599.82,616.15,10.10,0000 0000 0000 0000 000000
2015-12-24 08:56:55,0.28,2.68,0.00,11.52,16.53,20.34,15.15,51.78,1010.42,2075.98,2753.86,2474.48,2775.49,599.57,615.87,10.15,0000 0000 0000 0000 000000
2015-12-24 09:01:56,0.33,2.70,0.00,11.51,16.51,20.32,15.27,51.91,1010.47,2075.98,2749.66,2470.75,2771.38,600.13,616.43,10.20,0000 0000 0000 0000 000000
2015-12-24 09:06:57,0.31,2.72,0.00,11.54,16.48,20.29,15.15,51.74,1010.50,2075.99,2745.30,2466.97,2767.15,600.00,616.36,10.25,0000 0000 0000 0000 000000
2015-12-24 09:11:59,0.30,2.73,0.00,11.55,16.47,20.26,15.21,51.57,1010.69,2075.99,2740.87,2463.33,2763.17,599.88,616.36,10.30,0000 0000 0000 0000 000000
2015-12-24 09:17:00,0.26,2.75,0.00,11.57,16.44,20.26,15.14,51.50,1010.86,2075.99,2737.28,2460.32,2759.92,600.04,616.59,10.35,0000 0000 0000 0000 000000
2015-12-24 09:22:01,0.25,2.76,0.00,11.56,16.42,20.27,15.21,51.27,1011.21,2075.99,2733.70,2457.36,2756.68,600.12,616.82,10.40,0000 0000 0000 0000 000000
2015-12-24 09:27:03,0.22,2.77,0.00,11.58,16.42,20.24,15.15,51.27,1011.53,2075.99,2730.36,2454.70,2753.70,599.86,616.70,10.45,0000 0000 0000 0000 000000
2015-12-24 09:32:04,0.17,2.78,0.00,11.63,16.39,20.19,15.20,51.27,1011.72,2075.99,2727.40,2452.68,2751.40,600.12,616.99,10.50,0000 0000 0000 0000 000000
2015-12-24 09:37:05,0.26,2.79,0.00,11.65,16.39,20.19,15.18,51.30,1011.79,2076.00,2724.05,2450.04,2748.54,599.89,616.67,10.55,0000 0000 0000 0000 000000
2015-12-24 09:42:07,0.23,2.81,0.00,11.71,16.39,20.20,15.16,51.24,1011.97,2076.01,2720.47,2447.27,2745.41,599.65,616.47,10.60,0000 0000 0000 0000 000000
2015-12-24 09:47:08,0.23,2.82,0.00,11.73,16.39,20.17,15.14,51.11,1012.11,2076.01,2717.21,2444.73,2742.64,599.92,616.79,10.65,0000 0000 0000 0000 000000
2015-12-24 09:52:09,0.24,2.83,0.00,11.77,16.39,20.21,15.16,51.13,1012.05,2076.01,2713.89,2442.08,2739.56,600.31,617.10,10.70,0000 0000 0000 0000 000000
2015-12-24 09:57:11,0.22,2.84,0.00,11.83,16.39,20.20,15.16,51.17,1011.86,2076.00,2710.72,2439.44,2736.64,600.21,616.70,10.75,0000 0000 0000 0000 000000
2015-12-24 10:02:12,0.30,2.85,0.00,11.88,16.39,20.22,15.13,51.17,1011.96,2076.01,2706.91,2436.34,2733.03,599.85,616.30,10.80,0000 0000 0000 0000 000000
2015-12-24 10:07:13,0.22,2.87,0.00,11.90,16.39,20.29,15.15,51.14,1011.77,2076.00,2703.48,2433.63,2730.09,599.47,615.86,10.85,0000 0000 0000 0000 000000
2015-12-24 10:12:14,0.25,2.88,0.00,11.96,16.39,20.26,15.21,51.64,1010.72,2076.01,2699.80,2430.95,2727.05,599.96,615.49,10.90,0000 0000 0000 0000 000000
2015-12-24 10:17:16,0.32,2.89,0.00,12.00,16.41,20.32,15.08,52.00,1010.03,2076.00,2695.67,2427.38,2723.23,599.87,614.99,10.95,0000 0000 0000 0000 000000
2015-12-24 10:22:17,0.26,2.91,0.00,12.01,16.42,20.32,15.10,52.21,1009.74,2076.00,2691.82,2424.43,2719.68,599.94,614.76,11.00,0000 0000 0000 0000 000000
2015-12-24 10:27:18,0.25,2.92,0.00,12.04,16.42,20.37,15.12,52.12,1009.78,2076.00,2688.36,2421.72,2716.47,599.89,614.63,11.05,0000 0000 0000 0000 000000
2015-12-24 10:32:19,0.26,2.93,0.00,12.06,16.43,20.29,15.21,51.85,1009.85,2076.00,2684.89,2419.01,2713.19,600.23,615.21,11.10,0000 0000 0000 0000 000000
2015-12-24 10:37:21,0.28,2.95,0.00,12.07,16.44,20.42,15.16,51.84,1010.22,2076.00,2680.97,2416.01,2709.74,600.10,615.19,11.15,0000 0000 0000 0000 000000
2015-12-24 10:42:22,0.29,2.96,0.00,12.07,16.44,20.39,15.14,51.68,1010.32,2076.00,2676.84,2412.73,2706.13,600.02,615.07,11.20,0000 0000 0000 0000 000000
2015-12-24 10:47:24,0.29,2.98,0.00,12.08,16.47,20.40,15.16,51.73,1010.63,2076.00,2673.07,2409.60,2702.61,600.07,615.22,11.25,0000 0000 0000 0000 000000
2015-12-24 10:52:25,0.23,2.99,0.00,12.08,16.47,20.45,15.12,51.39,1010.69,2076.00,2669.75,2406.71,2699.37,599.98,615.18,11.30,0000 0000 0000 0000 000000
2015-12-24 10:57:27,0.24,3.00,0.00,12.10,16.49,20.44,15.20,51.22,1010.77,2075.99,2666.47,2404.20,2696.52,600.01,615.27,11.35,0000 0000 0000 0000 000000
2015-12-24 11:02:28,0.23,3.01,0.00,12.10,16.49,20.50,15.10,51.49,1010.86,2075.97,2663.00,2401.74,2693.69,599.77,615.09,11.40,0000 0000 0000 0000 000000
2015-12-24 11:07:29,0.22,3.03,0.00,12.14,16.52,20.50,15.14,51.20,1011.28,2075.97,2659.76,2399.35,2690.94,599.97,615.45,11.45,0000 0000 0000 0000 000000
2015-12-24 11:12:31,0.21,3.04,0.00,12.21,16.53,20.48,15.08,51.07,1011.86,2075.94,2656.63,2397.18,2688.39,599.43,615.06,11.50,0000 0000 0000 0000 000000
2015-12-24 11:17:32,0.22,3.05,0.00,12.18,16.55,20.53,15.23,51.58,1012.21,2075.89,2653.37,2394.78,2685.82,600.30,616.25,11.55,0000 0000 0000 0000 000000
2015-12-24 11:22:33,0.20,3.06,0.00,12.23,16.57,20.56,15.18,51.84,1012.19,2075.79,2650.23,2392.38,2683.07,599.99,615.85,11.60,0000 0000 0000 0000 000000
2015-12-24 11:27:35,0.19,3.07,0.00,12.26,16.59,20.59,15.25,51.61,1012.19,2075.32,2647.04,2389.94,2680.19,600.39,616.10,11.65,0000 0000 0000 0000 000000
2015-12-24 11:32:36,0.21,3.08,0.00,12.30,16.60,20.62,15.17,51.27,1011.93,2075.05,2643.60,2387.46,2677.30,599.91,615.54,11.70,0000 0000 0000 0000 000000
2015-12-24 11:37:37,0.26,3.09,0.00,12.30,16.62,20.57,15.13,51.64,1011.34,2075.04,2639.86,2384.87,2674.24,599.66,614.82,11.75,0000 0000 0000 0000 000000
2015-12-24 11:42:39,0.39,3.11,0.00,12.33,16.64,20.63,15.15,51.91,1010.80,2075.08,2635.49,2381.48,2670.35,600.05,614.88,11.81,0000 0000 0000 0000 000000
2015-12-24 11:47:40,0.26,3.13,0.00,12.36,16.65,20.65,15.15,51.88,1010.75,2075.07,2631.25,2377.88,2666.21,599.59,614.29,11.86,0000 0000 0000 0000 000000
2015-12-24 11:52:41,0.31,3.14,0.00,12.39,16.67,20.72,15.11,51.91,1010.39,2075.01,2627.49,2374.73,2662.47,599.92,614.26,11.91,0000 0000 0000 0000 000000
2015-12-24 11:57:43,0.35,3.16,0.00,12.42,16.69,20.65,15.16,52.08,1009.97,2075.01,2623.00,2370.97,2658.19,600.08,614.17,11.96,0000 0000 0000 0000 000000
2015-12-24 12:02:44,0.30,3.17,0.00,12.38,16.71,20.69,15.20,52.13,1009.79,2075.00,2618.73,2367.58,2654.35,600.25,614.44,12.01,0000 0000 0000 0000 000000
2015-12-24 12:07:46,0.26,3.19,0.00,12.37,16.72,20.76,15.23,52.23,1009.72,2075.00,2614.59,2365.03,2651.00,600.19,614.20,12.06,0000 0000 0000 0000 000000
2015-12-24 12:12:47,0.28,3.20,0.00,12.34,16.74,20.77,15.16,52.17,1009.75,2074.99,2610.74,2362.27,2647.46,600.04,614.11,12.11,0000 0000 0000 0000 000000
2015-12-24 12:17:48,0.32,3.22,0.00,12.34,16.75,20.81,15.13,52.25,1009.78,2074.97,2606.54,2359.02,2643.59,600.14,614.38,12.16,0000 0000 0000 0000 000000
2015-12-24 12:22:50,0.27,3.23,0.00,12.33,16.77,20.70,15.13,52.08,1009.79,2074.97,2602.79,2356.17,2640.37,600.04,614.25,12.21,0000 0000 0000 0000 000000
2015-12-24 12:27:51,0.29,3.25,0.00,12.32,16.77,20.77,15.05,51.83,1009.80,2074.92,2598.97,2352.99,2636.82,599.90,614.11,12.26,0000 0000 0000 0000 000000
2015-12-24 12:32:52,0.26,3.26,0.00,12.31,16.79,20.75,15.17,52.05,1009.77,2074.75,2595.07,2350.10,2633.56,600.38,614.52,12.31,0000 0000 0000 0000 000000
2015-12-24 12:37:54,0.31,3.28,0.00,12.32,16.79,20.75,15.15,52.08,1009.65,2074.75,2591.05,2346.93,2630.06,600.16,614.24,12.36,0000 0000 0000 0000 000000
2015-12-24 12:42:55,0.22,3.29,0.00,12.31,16.81,20.76,15.15,52.16,1009.72,2074.50,2587.58,2343.87,2626.70,599.97,614.09,12.41,0000 0000 0000 0000 000000
2015-12-24 12:47:57,0.27,3.30,0.00,12.30,16.82,20.72,15.12,52.28,1009.79,2074.37,2584.25,2341.14,2623.59,600.14,614.38,12.46,0000 0000 0000 0000 000000
2015-12-24 12:52:58,0.27,3.32,0.00,12.29,16.82,20.77,15.11,52.27,1009.79,2074.14,2579.97,2338.20,2620.35,600.03,614.28,12.51,0000 0000 0000 0000 000000
2015-12-24 12:57:59,0.24,3.33,0.00,12.25,16.83,20.77,15.07,52.18,1009.88,2074.09,2576.54,2335.68,2617.49,599.77,614.18,12.56,0000 0000 0000 0000 000000
2015-12-24 13:03:01,0.25,3.34,0.00,12.24,16.84,20.82,15.19,52.08,1010.18,2074.07,2573.10,2332.98,2614.45,599.94,614.51,12.61,0000 0000 0000 0000 000000